Tracking 17780 objects as of 29-July-2016
HD Live streaming from Space Station
objects crossing your sky now

SL-8 R/B

Track SL-8 R/B now!
10-day predictions


NORAD ID: 13917
Int'l Code: 1983-021B
Perigee: 960.4 km
Apogee: 1,004.5 km
Inclination: 82.9 °
Period: 104.6 minutes
Semi major axis: 7353 km
RCS: 4.8067 m2 (large)
Launch date: March 24, 1983
Source: Commonwealth of Independent States (former USSR) (CIS)
Launch site: PLESETSK MISSILE AND SPACE COMPLEX (PKMTR)

Note: This is a ROCKET BODY
Your satellite tracking list
Your tracking list is empty





NASA's NSSDC Master Catalog

Two Line Element Set (TLE):
1 13917U 83021B   16209.88925606 +.00000030 +00000-0 +14940-4 0  9992
2 13917 082.9454 127.7601 0029989 078.1189 348.2409 13.76790807674702
Source of the keplerian elements: AFSPC

N2YO: 1162